Location: Newark
(15.4608°S, 41.1635°W)
Time: 20:54:48
(UTC+00:00)

XW-2B - Visible Passes

Search period start: 21 February 2020 00:00
Search period end: 02 March 2020 00:00
Orbit: 507 x 528 km, 97.5° (Epoch: 21 February)

Date Brightness Start Highest point End Pass type
(mag) Time Alt. Az. Time Alt. Az. Time Alt. Az.
22 Feb ? 08:21:37 10° N 08:25:23 65° W 08:29:13 10° SSW visible
23 Feb ? 08:07:24 10° NNE 08:11:12 73° ESE 08:15:02 10° S visible
24 Feb ? 07:53:25 10° NNE 07:57:01 42° ESE 08:00:41 10° S visible
25 Feb ? 07:39:40 10° NE 07:42:52 26° ESE 07:46:05 10° SSE visible
26 Feb ? 07:26:19 10° ENE 07:28:44 16° ESE 07:31:09 10° SE visible
29 Feb ? 08:16:05 10° N 08:19:54 80° W 08:23:46 10° SSW visible
01 Mar ? 08:01:57 10° NNE 08:05:42 59° ESE 08:09:30 10° S visible
